Theta_e
321 322 322 323 331 335 341 340 339 338 341 343 335 339 347 346 347 357 355 351 347 351 336 343 346 344 340 337 339 341 344 345 344 344 343 339 332 326 326 325 333 333 333 332 331 328 322 324 325
322 321 322 327 332 339 340 339 339 338 336 333 334 336 348 349 352 356 354 351 349 344 335 343 345 342 337 337 339 342 342 344 344 343 340 334 330 326 327 325 332 334 333 327 321 322 324 326 325
320 321 324 330 335 338 339 338 339 337 334 333 333 343 350 350 355 353 353 350 350 345 340 341 343 339 335 336 339 339 339 340 340 338 334 331 327 325 326 325 323 324 321 320 320 322 325 326 325
321 322 323 329 336 336 336 336 334 334 334 333 333 337 350 353 354 351 349 349 349 348 348 340 341 338 333 332 336 337 337 336 334 333 331 328 324 324 325 324 322 322 322 321 322 323 325 326 325
320 323 327 329 333 335 332 333 333 333 333 333 334 337 349 355 354 351 350 348 347 348 349 341 340 336 331 329 330 333 334 333 332 331 328 323 322 324 324 323 322 323 323 322 323 323 325 325 325
322 324 328 330 331 333 331 331 331 333 332 332 340 339 349 357 356 351 351 348 346 348 350 340 338 333 329 330 332 333 332 331 330 327 322 321 323 324 324 323 323 323 322 322 322 323 324 325 325
319 324 326 329 331 331 331 327 330 331 330 338 343 346 351 355 358 353 353 349 348 349 350 339 336 331 330 331 332 331 331 328 325 323 321 322 324 324 324 322 324 323 322 321 320 322 323 324 324
317 322 324 326 329 330 330 325 329 328 330 336 340 346 349 356 359 355 354 350 348 348 348 346 336 331 331 332 333 333 331 326 323 322 322 323 324 323 322 323 324 323 323 322 320 320 321 321 322
316 321 323 324 326 328 327 328 330 327 330 334 335 334 346 356 357 355 354 351 347 347 348 346 344 342 342 341 334 334 333 330 325 323 323 323 323 323 323 324 324 324 324 323 321 321 320 319 319
317 318 321 322 324 326 327 327 332 330 330 334 337 329 352 356 354 353 351 349 347 346 347 346 345 344 343 343 343 335 336 335 333 327 323 325 338 340 340 336 325 324 323 323 322 322 321 321 324
316 317 318 319 322 323 325 326 328 332 333 331 330 327 330 353 354 352 349 346 346 346 346 346 348 347 345 344 346 344 345 344 341 337 333 331 340 337 327 337 325 322 322 323 329 324 323 333 332
316 316 316 317 320 321 324 325 328 331 331 330 331 328 327 329 335 352 351 348 347 347 347 348 349 346 344 345 346 346 346 346 347 344 339 341 340 345 343 341 342 340 340 340 339 338 339 336 327
317 316 316 316 317 320 322 325 327 329 332 329 330 329 329 328 328 330 343 351 350 349 349 349 349 342 339 343 346 347 347 347 348 348 341 343 347 347 347 347 347 346 346 346 347 346 347 346 346
317 316 316 316 316 316 322 326 325 327 330 331 331 330 331 330 329 329 325 337 352 351 351 350 351 346 338 339 346 348 348 347 348 348 348 340 345 347 347 347 346 346 346 345 345 345 346 346 345
315 316 317 317 317 318 317 324 327 327 328 330 331 331 329 330 328 329 329 325 338 351 353 352 351 349 339 338 341 346 350 348 349 349 349 347 341 347 339 347 347 347 348 347 347 346 346 346 346
315 315 316 316 317 317 319 323 325 326 327 330 331 331 331 330 327 329 330 330 323 335 351 354 353 352 344 344 348 351 352 352 351 350 350 348 345 338 337 341 348 349 350 350 350 350 349 349 348
316 315 316 316 317 317 319 320 321 324 326 327 329 331 331 329 328 329 330 330 326 322 338 349 350 350 347 345 350 349 351 350 352 352 350 350 346 337 337 347 351 350 350 351 351 350 348 347 346
317 316 315 316 317 317 318 320 319 322 324 326 328 328 330 330 330 330 327 327 327 320 318 323 339 340 340 345 345 352 352 352 353 353 351 345 337 340 345 350 351 349 350 345 344 340 343 343 342
318 318 317 317 317 317 317 318 320 320 322 324 327 329 328 331 330 330 328 329 323 320 318 320 322 323 324 328 340 349 350 351 352 353 351 348 348 350 345 350 348 344 340 340 340 339 339 337 337
318 319 318 318 318 319 317 318 319 321 321 322 325 327 328 330 330 329 326 325 321 318 318 319 321 321 322 326 330 346 349 350 351 351 350 348 348 347 347 345 338 333 333 329 329 333 332 330 331
318 319 319 319 320 318 318 319 320 321 321 322 324 323 328 329 330 325 323 323 321 319 319 319 319 321 323 330 339 337 347 345 348 350 350 350 348 344 333 322 321 323 316 326 330 325 326 324 325
319 318 319 319 319 320 320 322 322 322 322 323 322 321 324 328 326 322 320 320 319 318 317 324 326 327 327 327 334 339 343 343 344 346 345 338 329 321 317 314 314 313 323 325 324 322 319 324 323
319 319 319 319 320 320 321 321 323 322 322 322 322 320 320 324 322 318 318 318 318 323 331 331 328 328 331 331 338 340 341 340 335 330 324 320 318 314 314 314 315 314 314 321 314 315 315 319 322
319 319 319 319 320 320 320 321 322 323 323 323 324 323 322 320 320 320 318 321 324 320 325 325 327 332 335 336 333 328 329 328 326 324 324 323 323 322 317 318 316 315 315 315 317 315 314 314 317
319 320 321 320 320 320 320 321 320 325 325 325 325 323 322 321 322 322 323 324 325 326 326 326 331 328 327 324 321 320 320 319 317 317 325 324 323 324 324 324 319 324 320 316 316 320 317 318 320
321 322 321 320 320 319 321 321 321 325 323 323 322 321 321 320 320 319 320 321 321 322 324 325 326 322 320 320 320 320 319 319 318 322 320 322 324 324 325 327 328 327 325 327 326 326 323 321 321
322 322 322 322 322 322 321 322 325 324 324 323 322 322 321 320 320 319 319 319 319 319 320 320 320 320 320 320 320 320 319 318 318 318 317 319 321 324 323 323 321 320 326 329 327 327 326 323 321
322 321 322 322 323 321 322 324 322 325 325 324 324 322 320 319 318 317 316 316 315 315 315 316 316 317 317 317 317 317 316 315 315 315 315 315 315 316 316 317 318 321 326 328 329 327 327 325 323
321 322 323 324 323 324 322 325 326 325 325 324 323 321 320 319 317 316 315 315 314 314 314 314 313 314 314 314 314 314 314 313 313 313 312 312 313 314 314 315 316 317 320 325 326 327 327 326 324
322 323 322 329 325 324 325 325 324 325 324 323 321 320 319 318 317 316 315 314 314 313 312 312 311 311 311 310 310 309 309 308 308 307 307 307 307 307 308 309 312 314 315 317 319 324 327 326 326
Wind_Speed
8 7 6 6 7 7 14 8 14 7 6 2 7 7 4 9 5 3 8 15 21 22 23 23 24 24 22 20 20 22 23 22 20 18 14 11 10 12 15 15 16 15 13 12 10 8 8 9 8
7 6 7 7 8 13 12 11 12 11 4 11 9 7 7 3 1 6 15 16 21 22 24 24 24 24 22 21 21 22 22 22 20 17 13 12 11 13 15 15 15 14 12 10 9 8 8 7 7
8 5 10 6 13 16 14 9 13 6 9 11 5 4 1 2 4 11 9 21 24 22 24 24 23 22 22 21 22 22 21 20 18 15 14 12 12 14 15 15 14 13 11 9 9 8 7 6 5
8 8 9 11 18 17 18 2 3 7 10 4 5 7 3 1 8 11 20 23 23 22 22 23 22 21 21 20 21 21 20 19 17 15 14 13 13 15 16 14 13 12 10 8 8 7 6 5 4
13 10 12 17 23 21 8 17 7 9 9 9 9 13 2 3 9 17 19 23 23 22 21 24 23 20 19 19 19 19 19 17 16 14 13 13 14 15 15 13 12 10 9 7 7 6 5 4 3
16 14 15 20 21 20 12 13 10 12 11 10 8 14 5 6 10 18 18 21 21 22 21 24 23 21 19 19 18 18 17 15 14 13 13 13 15 15 14 13 11 10 8 7 7 7 6 6 6
22 14 21 23 21 20 14 15 15 10 9 2 4 8 5 9 10 16 17 20 21 21 21 24 23 23 21 20 18 16 14 13 13 12 13 14 14 15 14 13 11 10 9 9 8 8 8 8 8
25 16 25 24 21 20 13 10 12 9 2 2 2 1 2 9 12 15 15 20 21 21 20 21 24 23 23 22 19 16 14 12 12 12 13 14 15 15 14 13 12 10 10 9 9 9 9 10 10
17 17 21 27 24 18 14 15 19 6 2 5 6 9 8 8 12 13 15 18 20 20 20 20 20 21 21 20 21 18 16 13 13 13 14 14 15 15 15 14 13 12 11 10 10 10 10 11 12
18 17 26 20 18 14 19 20 25 14 7 7 5 12 7 8 10 12 15 19 21 21 21 20 20 20 21 19 20 21 19 17 16 15 16 16 13 13 13 14 14 14 13 12 12 11 12 13 12
21 22 19 25 19 17 18 21 24 21 15 7 7 8 10 1 7 9 12 15 19 19 20 20 21 21 21 19 18 19 18 17 18 18 17 16 14 14 15 12 14 15 14 13 13 13 13 11 11
19 23 25 22 18 22 23 21 25 26 20 15 8 4 7 7 5 9 10 12 15 17 19 20 21 23 23 19 19 19 19 18 17 19 20 18 17 15 14 12 12 12 10 11 12 11 12 14 16
21 19 22 25 22 25 24 25 23 24 28 16 11 5 5 5 8 9 13 10 12 16 18 20 21 24 25 26 19 20 19 19 17 18 21 20 17 16 15 15 14 13 12 12 12 13 14 14 16
15 23 21 20 27 30 23 23 25 27 22 22 21 21 17 13 12 12 9 14 16 16 17 19 20 22 25 27 24 20 19 18 18 18 18 22 19 17 15 15 14 13 13 13 14 15 15 17 17
22 15 18 22 24 20 32 24 26 27 21 31 29 25 27 23 19 15 13 14 16 20 18 20 21 22 24 25 24 22 19 20 19 18 19 20 21 18 17 14 14 12 12 13 15 16 17 17 18
19 21 20 19 22 28 19 29 28 28 27 22 27 26 23 37 27 21 17 18 15 15 21 20 20 22 24 23 22 21 19 19 19 18 18 20 20 19 17 15 12 12 12 13 13 13 15 16 18
16 17 21 19 23 22 24 26 25 31 32 30 27 34 32 40 31 25 21 18 18 19 18 18 20 21 23 25 23 23 22 21 18 18 18 19 19 19 17 14 12 16 12 13 14 14 16 17 19
18 21 16 18 19 20 28 25 24 13 18 29 33 39 43 56 46 27 27 22 27 19 21 23 20 22 22 19 21 19 19 19 19 19 18 21 20 18 18 14 14 16 12 13 14 15 14 18 19
9 11 15 16 16 22 25 28 25 25 26 25 28 38 41 50 52 33 31 36 32 21 21 22 21 22 24 22 20 19 20 18 18 19 18 17 16 16 17 13 14 14 13 13 14 15 15 18 18
15 16 14 11 13 18 22 24 24 25 25 28 23 28 39 45 50 30 26 24 32 24 21 24 22 27 25 22 20 15 16 15 15 15 16 17 17 17 15 15 15 14 12 17 15 14 14 18 17
17 18 14 11 4 11 17 23 20 21 21 23 24 22 27 40 42 27 27 29 24 27 18 25 36 36 28 21 20 21 15 15 15 14 14 15 16 17 16 16 15 17 16 13 15 13 14 16 17
18 16 17 15 10 13 19 13 19 17 19 18 23 23 15 30 31 25 32 33 29 34 27 27 32 29 25 25 18 17 13 12 12 13 13 14 15 16 16 16 16 17 12 14 13 12 12 13 17
16 13 14 15 16 17 15 11 12 17 14 19 16 15 23 16 18 25 27 32 27 14 18 21 22 20 20 17 14 12 12 10 8 10 12 14 16 16 16 18 17 17 16 15 15 16 16 14 16
16 18 13 16 15 15 18 13 10 14 15 15 12 9 8 12 11 10 18 10 13 15 14 14 13 12 11 12 14 14 10 9 8 8 9 10 13 15 19 20 21 21 21 21 20 20 21 20 17
13 13 9 10 13 14 18 12 6 11 9 7 12 15 13 12 12 12 10 9 7 7 6 7 10 14 15 15 15 15 14 14 11 11 8 13 15 17 19 22 24 22 24 25 26 24 26 24 21
18 16 11 14 13 15 8 8 5 8 10 12 16 17 16 17 16 17 15 14 12 13 12 11 10 11 13 13 13 13 13 11 14 13 18 18 17 19 21 22 23 25 27 25 26 27 28 26 25
13 11 13 9 5 7 12 7 6 9 11 13 15 17 17 18 18 20 18 17 17 15 14 11 8 8 7 9 11 14 18 20 22 24 26 24 26 23 27 26 31 33 30 29 31 31 31 30 30
13 14 9 9 11 13 7 14 7 15 12 11 13 16 17 17 16 17 16 16 15 13 10 8 6 2 3 7 11 15 19 21 23 25 28 30 32 34 35 36 36 34 32 30 32 34 34 34 35
11 12 11 5 8 10 10 8 9 12 11 10 11 14 15 14 14 13 13 13 12 11 10 7 5 6 7 10 14 17 19 22 25 27 28 30 32 34 35 35 34 34 32 30 34 36 37 36 37
3 7 14 8 12 8 10 3 0 9 10 13 14 13 12 12 11 10 10 10 9 9 8 7 8 8 9 13 17 20 24 25 28 30 33 34 36 36 37 37 34 33 33 32 33 36 39 41 42
Wind_Direction
269 302 293 262 246 234 251 229 256 248 192 85 321 274 294 335 287 38 143 149 159 161 173 179 175 175 174 174 175 176 174 174 172 171 168 170 168 162 159 155 152 154 155 157 159 154 142 133 127
249 287 259 253 246 234 236 217 218 236 317 315 297 246 237 210 127 118 141 161 158 165 172 181 177 177 176 174 174 174 175 177 177 176 179 178 176 170 166 160 159 160 165 169 167 157 146 138 132
240 244 256 229 239 241 244 166 245 221 269 294 280 257 278 96 155 154 165 155 157 162 171 179 180 181 178 175 175 177 178 179 182 185 187 188 183 175 172 169 166 168 172 171 166 161 156 149 142
216 216 238 244 235 234 254 239 227 254 257 271 293 264 173 130 145 158 155 155 158 160 169 175 178 183 181 179 179 181 182 185 186 191 195 196 185 178 176 175 172 168 172 172 169 170 172 167 161
210 236 238 227 240 243 217 256 258 269 274 261 291 260 204 140 135 147 151 158 159 162 167 175 178 182 183 182 183 183 186 189 193 198 203 197 184 179 179 179 175 174 177 180 181 185 193 193 196
214 233 235 233 231 236 212 249 253 260 272 267 261 253 157 168 146 155 154 161 164 165 167 178 179 181 184 185 187 186 188 194 200 202 202 192 184 181 184 187 187 183 186 193 199 201 210 218 221
227 214 235 241 238 228 211 246 252 267 265 222 317 249 114 169 170 162 158 163 168 168 168 180 182 182 184 186 190 190 192 200 200 198 195 190 188 187 192 195 197 198 200 205 211 216 220 227 234
227 247 238 239 238 241 216 222 233 238 131 220 63 37 206 166 161 163 164 166 170 170 175 177 184 184 186 188 189 193 196 197 196 195 193 191 194 195 198 203 208 212 215 217 223 228 234 241 246
219 237 234 233 228 242 237 214 203 196 70 99 97 21 312 191 163 164 169 173 173 176 181 179 180 182 183 190 192 193 197 196 195 196 196 197 200 203 208 212 216 222 228 233 240 245 247 250 255
218 229 235 242 244 239 238 225 210 208 166 152 119 12 59 161 173 178 178 179 180 182 185 185 183 186 185 190 195 196 201 202 201 201 202 202 201 209 209 225 226 232 237 242 248 253 259 265 262
221 243 240 246 249 254 254 236 235 227 197 151 88 26 46 144 204 203 191 186 188 189 189 190 188 191 188 190 196 194 199 199 205 207 211 204 211 220 221 225 236 239 244 248 263 257 261 255 249
225 236 243 252 228 236 244 249 237 223 214 169 141 20 16 20 324 259 216 199 196 198 196 195 197 200 196 195 199 202 200 201 205 211 218 214 218 220 217 225 230 237 235 245 247 251 254 256 270
223 241 223 236 235 241 246 244 247 236 228 184 205 236 295 325 347 331 273 236 215 210 206 203 202 208 209 202 206 204 205 208 209 212 223 220 220 224 228 229 230 234 241 247 252 257 259 263 268
218 239 238 229 232 233 235 240 236 239 246 223 227 228 262 287 299 316 309 264 239 225 218 211 210 214 214 216 208 209 212 214 212 217 219 228 225 227 230 236 240 241 245 250 254 259 260 265 266
242 242 230 235 244 251 236 240 229 233 238 244 233 231 250 281 286 290 303 298 255 241 228 220 216 219 222 222 223 220 219 215 218 221 225 230 232 232 237 236 237 238 243 250 256 261 265 267 269
231 226 238 226 224 234 249 243 231 224 242 243 233 232 240 264 276 283 291 297 277 251 236 221 218 220 230 226 225 222 220 222 220 221 221 226 229 234 239 233 235 237 241 248 256 260 265 267 270
214 232 223 242 224 224 216 246 249 229 229 234 236 230 244 247 268 281 288 290 281 282 246 229 222 220 227 230 226 230 229 228 225 224 221 225 224 230 227 226 235 242 240 247 252 259 264 267 273
217 228 233 234 229 223 226 232 240 231 233 242 232 229 219 238 254 276 291 292 282 281 254 246 231 225 229 229 230 225 226 226 222 224 221 227 227 225 226 227 231 245 246 249 268 268 262 269 277
282 247 231 240 240 235 231 237 223 222 221 238 231 235 230 225 242 259 285 294 280 271 264 241 235 231 227 226 224 221 225 223 221 220 217 217 214 220 231 227 241 243 245 250 251 264 276 278 278
246 259 243 263 238 233 230 240 236 229 225 230 237 241 236 233 230 256 284 262 269 281 266 242 230 237 234 227 224 217 217 217 214 217 220 220 220 223 227 229 236 246 249 269 268 269 273 277 279
222 251 246 265 309 204 228 234 233 227 220 222 229 245 241 226 220 243 252 247 281 289 251 233 232 230 225 215 210 215 201 205 206 208 215 223 219 221 225 245 246 253 263 255 268 277 277 283 281
230 220 252 262 255 224 209 235 208 210 213 218 221 232 223 202 215 234 259 251 262 274 246 232 225 223 218 221 218 217 213 218 215 216 207 219 222 235 246 251 256 261 248 247 260 272 274 276 287
241 228 237 255 253 262 217 259 213 181 207 209 218 229 229 219 238 268 264 263 257 231 211 213 218 219 218 222 219 232 225 219 205 196 220 230 243 245 250 256 252 255 259 258 261 260 274 272 277
239 231 245 249 250 240 248 236 179 171 205 165 136 136 153 178 184 203 224 215 208 214 210 214 215 220 207 190 187 183 189 194 204 225 235 241 244 251 254 254 258 261 261 259 263 265 270 274 269
200 201 203 210 223 238 221 219 248 75 87 116 121 112 119 121 124 119 109 106 122 143 160 164 172 184 184 187 193 201 209 216 228 244 253 244 249 254 258 263 256 257 265 264 266 264 268 267 266
203 216 236 207 209 214 164 227 226 98 107 111 106 107 108 104 102 98 100 102 102 103 112 125 131 155 180 193 204 215 227 238 246 261 252 255 258 258 258 257 260 262 258 255 257 257 260 261 263
189 223 258 272 269 273 169 150 132 120 124 123 116 110 102 97 99 100 99 98 92 91 91 96 120 167 190 216 228 238 247 253 256 261 266 271 263 269 273 271 268 265 261 256 252 254 252 257 257
265 212 198 230 237 235 181 176 214 165 150 139 126 114 108 104 98 93 89 85 85 81 83 90 81 108 239 260 260 263 265 273 277 276 276 275 274 274 273 273 271 268 265 258 255 255 255 252 253
198 221 239 275 260 225 228 232 101 153 145 138 120 114 108 104 98 89 81 74 67 61 56 44 27 5 320 293 288 288 289 288 287 284 282 281 281 280 278 277 275 272 268 263 258 256 254 252 254
322 267 227 219 221 248 271 126 67 124 135 140 124 114 107 100 95 87 77 70 60 48 35 15 348 340 324 308 300 295 290 288 286 285 285 282 280 278 276 274 272 271 268 265 260 258 257 255 255